Home   Weather   Morden   Past weeks

Flag for Canada Past Weather in Morden, Manitoba, Canada — Yesterday and Last 2 Weeks

Now
31 °F

Chilly.


Feels Like: 31 °F
Forecast: 26 / 32 °F
Wind: 1 mph from Southwest

Location: Morden CDA CS

Current Time: Jan 22, 2017 at 12:04:13 am

Latest Report: Jan 21, 2017 at 11:00 pm


Visibility: N/A

Pressure: 29.60 "Hg

Humidity: 100%

Dew Point: 31 °F

Location of MordenLocation

Past Weather in Morden — Graph

°F

Morden Temperature Yesterday

Maximum temperature yesterday: 33 °F (at 2:00 am)
Minimum temperature yesterday: 31 °F (at 6:00 am)
Average temperature yesterday: 33 °F

High & Low Weather Summary for the Past Weeks

 TemperatureHumidityPressure
High41 °F (Jan 18, 11:00 pm)100% (Jan 20, 3:00 pm)30.71 "Hg (Jan 20, 3:00 pm)
Low-26 °F (Jan 13, 4:00 am)53% (Jan 14, 4:00 pm)29.43 "Hg (Jan 21, 4:00 am)
Average11 °F75%29.99 "Hg
* Reported Jan 6 10:00 pm — Jan 21 10:00 pm, Morden, Weather by CustomWeather, © 2017

Note: Actual official high and low records may vary slightly from our data, if they occured in-between our weather recording intervals... More about our weather records

Advertising

Morden Weather History for the Previous 24 Hours

Scroll right to see more
 ConditionsComfort  
Time TempWeatherWind HumidityBarometerVisibility
10:00 pm
Sat, Jan 21
33 °FChilly.2 mph100%29.59 "HgN/A
9:00 pm33 °FChilly.2 mph100%29.58 "HgN/A
8:00 pm33 °FChilly.3 mph100%29.57 "HgN/A
7:00 pm33 °FChilly.5 mph100%29.55 "HgN/A
6:00 pm33 °FChilly.6 mph100%29.54 "HgN/A
5:00 pm33 °FChilly.5 mph100%29.53 "HgN/A
4:00 pm33 °FChilly.3 mph100%29.50 "HgN/A
3:00 pm33 °FChilly.5 mph100%29.47 "HgN/A
2:00 pm33 °FChilly.5 mph100%29.46 "HgN/A
1:00 pm33 °FChilly.7 mph100%29.45 "HgN/A
12:00 pm33 °FChilly.7 mph100%29.46 "HgN/A
11:00 am33 °FChilly.7 mph100%29.46 "HgN/A
10:00 am33 °FChilly.7 mph100%29.45 "HgN/A
9:00 am33 °FChilly.9 mph100%29.45 "HgN/A
8:00 am33 °FChilly.7 mph100%29.44 "HgN/A
7:00 am33 °FChilly.8 mph100%29.44 "HgN/A
6:00 am31 °FChilly.7 mph100%29.43 "HgN/A
5:00 am33 °FChilly.6 mph100%29.43 "HgN/A
4:00 am33 °FChilly.6 mph100%29.43 "HgN/A
3:00 am33 °FChilly.6 mph100%29.44 "HgN/A
2:00 am33 °FChilly.8 mph100%29.44 "HgN/A
1:00 am33 °FChilly.6 mph100%29.44 "HgN/A
12:00 am33 °FChilly.7 mph100%29.45 "HgN/A
Weather by CustomWeather, © 2017

See weather overviewHow to use our weather pages